Year,Month,Day,Hour,Minute,Value (Times are PST for temperature in C)
2008,07,01,00,00,17.10
2008,07,01,00,01,17.10
2008,07,01,00,02,17.10
2008,07,01,00,03,17.00
2008,07,01,00,04,17.00
2008,07,01,00,05,16.90
2008,07,01,00,06,16.90
2008,07,01,00,07,16.80
2008,07,01,00,08,16.80
2008,07,01,00,09,16.70
2008,07,01,00,10,16.70
2008,07,01,00,11,16.70
2008,07,01,00,12,16.60
2008,07,01,00,13,16.60
2008,07,01,00,14,16.60
2008,07,01,00,15,16.60
2008,07,01,00,16,16.60
2008,07,01,00,17,16.50
2008,07,01,00,18,16.50
2008,07,01,00,19,16.50
2008,07,01,00,20,16.50
2008,07,01,00,21,16.40
2008,07,01,00,22,16.40
2008,07,01,00,23,16.30
2008,07,01,00,24,16.30
2008,07,01,00,25,16.30
2008,07,01,00,26,16.20
2008,07,01,00,27,16.20
2008,07,01,00,28,16.20
2008,07,01,00,29,16.10
2008,07,01,00,30,16.10
2008,07,01,00,31,16.10
2008,07,01,00,32,16.10
2008,07,01,00,33,16.00
2008,07,01,00,34,16.00
2008,07,01,00,35,16.00
2008,07,01,00,36,15.90
2008,07,01,00,37,15.90
2008,07,01,00,38,15.90
2008,07,01,00,39,15.90
2008,07,01,00,40,15.80
2008,07,01,00,41,15.80
2008,07,01,00,42,15.80
2008,07,01,00,43,15.70
2008,07,01,00,44,15.70
2008,07,01,00,45,15.60
2008,07,01,00,46,15.60
2008,07,01,00,47,15.50
2008,07,01,00,48,15.50
2008,07,01,00,49,15.40
2008,07,01,00,50,15.40
2008,07,01,00,51,15.30
2008,07,01,00,52,15.30
2008,07,01,00,53,15.30
2008,07,01,00,54,15.30
2008,07,01,00,55,15.20
2008,07,01,00,56,15.20
2008,07,01,00,57,15.20
2008,07,01,00,58,15.20
2008,07,01,00,59,15.20
2008,07,01,01,00,15.10
2008,07,01,01,01,15.10
2008,07,01,01,02,15.10
2008,07,01,01,03,15.10
2008,07,01,01,04,15.00
2008,07,01,01,05,15.00
2008,07,01,01,06,15.00
2008,07,01,01,07,15.00
2008,07,01,01,08,15.00
2008,07,01,01,09,15.00
2008,07,01,01,10,15.00
2008,07,01,01,11,15.00
2008,07,01,01,12,15.00
2008,07,01,01,13,15.00
2008,07,01,01,14,15.00
2008,07,01,01,15,15.00
2008,07,01,01,16,15.00
2008,07,01,01,17,15.00
2008,07,01,01,18,15.00
2008,07,01,01,19,15.00
2008,07,01,01,20,15.00
2008,07,01,01,21,15.00
2008,07,01,01,22,15.00
2008,07,01,01,23,15.00
2008,07,01,01,24,15.00
2008,07,01,01,25,15.00
2008,07,01,01,26,15.00
2008,07,01,01,27,15.00
2008,07,01,01,28,14.90
2008,07,01,01,29,14.80
2008,07,01,01,30,14.80
2008,07,01,01,31,14.70
2008,07,01,01,32,14.70
2008,07,01,01,33,14.70
2008,07,01,01,34,14.60
2008,07,01,01,35,14.60
2008,07,01,01,36,14.60
2008,07,01,01,37,14.60
2008,07,01,01,38,14.50
2008,07,01,01,39,14.50
2008,07,01,01,40,14.50
2008,07,01,01,41,14.40
2008,07,01,01,42,14.40
2008,07,01,01,43,14.40
2008,07,01,01,44,14.40
2008,07,01,01,45,14.40
2008,07,01,01,46,14.40
2008,07,01,01,47,14.30
2008,07,01,01,48,14.30
2008,07,01,01,49,14.30
2008,07,01,01,50,14.30
2008,07,01,01,51,14.30
2008,07,01,01,52,14.30
2008,07,01,01,53,14.30
2008,07,01,01,54,14.20
2008,07,01,01,55,14.20
2008,07,01,01,56,14.20
2008,07,01,01,57,14.20
2008,07,01,01,58,14.20
2008,07,01,01,59,14.20
2008,07,01,02,00,14.20
2008,07,01,02,01,14.10
2008,07,01,02,02,14.10
2008,07,01,02,03,14.10
2008,07,01,02,04,14.10
2008,07,01,02,05,14.10
2008,07,01,02,06,14.10
2008,07,01,02,07,14.10
2008,07,01,02,08,14.10
2008,07,01,02,09,14.10
2008,07,01,02,10,14.10
2008,07,01,02,11,14.10
2008,07,01,02,12,14.10
2008,07,01,02,13,14.00
2008,07,01,02,14,14.00
2008,07,01,02,15,13.90
2008,07,01,02,16,13.90
2008,07,01,02,17,13.90
2008,07,01,02,18,13.90
2008,07,01,02,19,13.80
2008,07,01,02,20,13.80
2008,07,01,02,21,13.80
2008,07,01,02,22,13.80
2008,07,01,02,23,13.80
2008,07,01,02,24,13.80
2008,07,01,02,25,13.80
2008,07,01,02,26,13.80
2008,07,01,02,27,13.80
2008,07,01,02,28,13.80
2008,07,01,02,29,13.70
2008,07,01,02,30,13.70
2008,07,01,02,31,13.70
2008,07,01,02,32,13.70
2008,07,01,02,33,13.70
2008,07,01,02,34,13.70
2008,07,01,02,35,13.70
2008,07,01,02,36,13.70
2008,07,01,02,37,13.70
2008,07,01,02,38,13.70
2008,07,01,02,39,13.70
2008,07,01,02,40,13.70
2008,07,01,02,41,13.70
2008,07,01,02,42,13.70
2008,07,01,02,43,13.70
2008,07,01,02,44,13.70
2008,07,01,02,45,13.60
2008,07,01,02,46,13.60
2008,07,01,02,47,13.60
2008,07,01,02,48,13.60
2008,07,01,02,49,13.50
2008,07,01,02,50,13.50
2008,07,01,02,51,13.50
2008,07,01,02,52,13.50
2008,07,01,02,53,13.50
2008,07,01,02,54,13.50
2008,07,01,02,55,13.50
2008,07,01,02,56,13.40
2008,07,01,02,57,13.40
2008,07,01,02,58,13.40
2008,07,01,02,59,13.40
2008,07,01,03,00,13.40
2008,07,01,03,01,13.40
2008,07,01,03,02,13.40
2008,07,01,03,03,13.40
2008,07,01,03,04,13.40
2008,07,01,03,05,13.40
2008,07,01,03,06,13.40
2008,07,01,03,07,13.40
2008,07,01,03,08,13.40
2008,07,01,03,09,13.40
2008,07,01,03,10,13.30
2008,07,01,03,11,13.30
2008,07,01,03,12,13.30
2008,07,01,03,13,13.30
2008,07,01,03,14,13.30
2008,07,01,03,15,13.30
2008,07,01,03,16,13.30
2008,07,01,03,17,13.20
2008,07,01,03,18,13.20
2008,07,01,03,19,13.20
2008,07,01,03,20,13.20
2008,07,01,03,21,13.20
2008,07,01,03,22,13.20
2008,07,01,03,23,13.10
2008,07,01,03,24,13.10
2008,07,01,03,25,13.10
2008,07,01,03,26,13.10
2008,07,01,03,27,13.10
2008,07,01,03,28,13.00
2008,07,01,03,29,13.00
2008,07,01,03,30,13.00
2008,07,01,03,31,13.00
2008,07,01,03,32,12.90
2008,07,01,03,33,12.90
2008,07,01,03,34,12.90
2008,07,01,03,35,12.90
2008,07,01,03,36,12.90
2008,07,01,03,37,12.90
2008,07,01,03,38,12.90
2008,07,01,03,39,12.90
2008,07,01,03,40,12.90
2008,07,01,03,41,12.90
2008,07,01,03,42,12.90
2008,07,01,03,43,12.90
2008,07,01,03,44,12.90
2008,07,01,03,45,12.90
2008,07,01,03,46,12.80
2008,07,01,03,47,12.80
2008,07,01,03,48,12.80
2008,07,01,03,49,12.80
2008,07,01,03,50,12.80
2008,07,01,03,51,12.80
2008,07,01,03,52,12.80
2008,07,01,03,53,12.80
2008,07,01,03,54,12.80
2008,07,01,03,55,12.80
2008,07,01,03,56,12.80
2008,07,01,03,57,12.80
2008,07,01,03,58,12.80
2008,07,01,03,59,12.80
2008,07,01,04,00,12.80
2008,07,01,04,01,12.80
2008,07,01,04,02,12.80
2008,07,01,04,03,12.80
2008,07,01,04,04,12.80
2008,07,01,04,05,12.70
2008,07,01,04,06,12.70
2008,07,01,04,07,12.70
2008,07,01,04,08,12.70
2008,07,01,04,09,12.70
2008,07,01,04,10,12.60
2008,07,01,04,11,12.60
2008,07,01,04,12,12.60
2008,07,01,04,13,12.60
2008,07,01,04,14,12.60
2008,07,01,04,15,12.60
2008,07,01,04,16,12.60
2008,07,01,04,17,12.60
2008,07,01,04,18,12.60
2008,07,01,04,19,12.60
2008,07,01,04,20,12.60
2008,07,01,04,21,12.60
2008,07,01,04,22,12.60
2008,07,01,04,23,12.60
2008,07,01,04,24,12.60
2008,07,01,04,25,12.60
2008,07,01,04,26,12.60
2008,07,01,04,27,12.60
2008,07,01,04,28,12.50
2008,07,01,04,29,12.50
2008,07,01,04,30,12.50
2008,07,01,04,31,12.50
2008,07,01,04,32,12.50
2008,07,01,04,33,12.50
2008,07,01,04,34,12.50
2008,07,01,04,35,12.50
2008,07,01,04,36,12.50
2008,07,01,04,37,12.40
2008,07,01,04,38,12.40
2008,07,01,04,39,12.40
2008,07,01,04,40,12.40
2008,07,01,04,41,12.40
2008,07,01,04,42,12.40
2008,07,01,04,43,12.40
2008,07,01,04,44,12.40
2008,07,01,04,45,12.40
2008,07,01,04,46,12.40
2008,07,01,04,47,12.40
2008,07,01,04,48,12.40
2008,07,01,04,49,12.40
2008,07,01,04,50,12.30
2008,07,01,04,51,12.40
2008,07,01,04,52,12.30
2008,07,01,04,53,12.40
2008,07,01,04,54,12.30
2008,07,01,04,55,12.30
2008,07,01,04,56,12.30
2008,07,01,04,57,12.30
2008,07,01,04,58,12.30
2008,07,01,04,59,12.30
2008,07,01,05,00,12.30
2008,07,01,05,01,12.30
2008,07,01,05,02,12.30
2008,07,01,05,03,12.30
2008,07,01,05,04,12.30
2008,07,01,05,05,12.30
2008,07,01,05,06,12.30
2008,07,01,05,07,12.30
2008,07,01,05,08,12.30
2008,07,01,05,09,12.30
2008,07,01,05,10,12.30
2008,07,01,05,11,12.20
2008,07,01,05,12,12.20
2008,07,01,05,13,12.20
2008,07,01,05,14,12.20
2008,07,01,05,15,12.20
2008,07,01,05,16,12.20
2008,07,01,05,17,12.20
2008,07,01,05,18,12.20
2008,07,01,05,19,12.20
2008,07,01,05,20,12.20
2008,07,01,05,21,12.20
2008,07,01,05,22,12.20
2008,07,01,05,23,12.20
2008,07,01,05,24,12.20
2008,07,01,05,25,12.20
2008,07,01,05,26,12.20
2008,07,01,05,27,12.20
2008,07,01,05,28,12.20
2008,07,01,05,29,12.20
2008,07,01,05,30,12.20
2008,07,01,05,31,12.20
2008,07,01,05,32,12.20
2008,07,01,05,33,12.20
2008,07,01,05,34,12.20
2008,07,01,05,35,12.20
2008,07,01,05,36,12.20
2008,07,01,05,37,12.20
2008,07,01,05,38,12.20
2008,07,01,05,39,12.20
2008,07,01,05,40,12.30
2008,07,01,05,41,12.30
2008,07,01,05,42,12.30
2008,07,01,05,43,12.30
2008,07,01,05,44,12.30
2008,07,01,05,45,12.30
2008,07,01,05,46,12.40
2008,07,01,05,47,12.40
2008,07,01,05,48,12.40
2008,07,01,05,49,12.40
2008,07,01,05,50,12.40
2008,07,01,05,51,12.50
2008,07,01,05,52,12.50
2008,07,01,05,53,12.50
2008,07,01,05,54,12.50
2008,07,01,05,55,12.60
2008,07,01,05,56,12.60
2008,07,01,05,57,12.60
2008,07,01,05,58,12.70
2008,07,01,05,59,12.70
2008,07,01,06,00,12.70
2008,07,01,06,01,12.70
2008,07,01,06,02,12.70
2008,07,01,06,03,12.80
2008,07,01,06,04,12.80
2008,07,01,06,05,12.80
2008,07,01,06,06,12.80
2008,07,01,06,07,12.80
2008,07,01,06,08,12.80
2008,07,01,06,09,12.80
2008,07,01,06,10,12.90
2008,07,01,06,11,12.90
2008,07,01,06,12,12.90
2008,07,01,06,13,12.90
2008,07,01,06,14,12.90
2008,07,01,06,15,12.90
2008,07,01,06,16,12.90
2008,07,01,06,17,12.90
2008,07,01,06,18,13.00
2008,07,01,06,19,13.00
2008,07,01,06,20,13.00
2008,07,01,06,21,13.10
2008,07,01,06,22,13.10
2008,07,01,06,23,13.20
2008,07,01,06,24,13.30
2008,07,01,06,25,13.30
2008,07,01,06,26,13.40
2008,07,01,06,27,13.40
2008,07,01,06,28,13.50
2008,07,01,06,29,13.50
2008,07,01,06,30,13.60
2008,07,01,06,31,13.60
2008,07,01,06,32,13.60
2008,07,01,06,33,13.70
2008,07,01,06,34,13.80
2008,07,01,06,35,13.80
2008,07,01,06,36,13.90
2008,07,01,06,37,13.90
2008,07,01,06,38,14.00
2008,07,01,06,39,14.10
2008,07,01,06,40,14.20
2008,07,01,06,41,14.30
2008,07,01,06,42,14.30
2008,07,01,06,43,14.40
2008,07,01,06,44,14.40
2008,07,01,06,45,14.40
2008,07,01,06,46,14.50
2008,07,01,06,47,14.60
2008,07,01,06,48,14.60
2008,07,01,06,49,14.60
2008,07,01,06,50,14.60
2008,07,01,06,51,14.60
2008,07,01,06,52,14.50
2008,07,01,06,53,14.50
2008,07,01,06,54,14.40
2008,07,01,06,55,14.40
2008,07,01,06,56,14.40
2008,07,01,06,57,14.40
2008,07,01,06,58,14.40
2008,07,01,06,59,14.40
2008,07,01,07,00,14.50
2008,07,01,07,01,14.50
2008,07,01,07,02,14.50
2008,07,01,07,03,14.50
2008,07,01,07,04,14.50
2008,07,01,07,05,14.50
2008,07,01,07,06,14.50
2008,07,01,07,07,14.60
2008,07,01,07,08,14.60
2008,07,01,07,09,14.60
2008,07,01,07,10,14.70
2008,07,01,07,11,14.70
2008,07,01,07,12,14.70
2008,07,01,07,13,14.60
2008,07,01,07,14,14.60
2008,07,01,07,15,14.60
2008,07,01,07,16,14.60
2008,07,01,07,17,14.60
2008,07,01,07,18,14.60
2008,07,01,07,19,14.60
2008,07,01,07,20,14.60
2008,07,01,07,21,14.60
2008,07,01,07,22,14.60
2008,07,01,07,23,14.70
2008,07,01,07,24,14.80
2008,07,01,07,25,14.90
2008,07,01,07,26,15.00
2008,07,01,07,27,15.00
2008,07,01,07,28,15.00
2008,07,01,07,29,15.00
2008,07,01,07,30,15.00
2008,07,01,07,31,15.00
2008,07,01,07,32,15.00
2008,07,01,07,33,15.00
2008,07,01,07,34,15.00
2008,07,01,07,35,15.00
2008,07,01,07,36,15.00
2008,07,01,07,37,15.00
2008,07,01,07,38,15.00
2008,07,01,07,39,15.00
2008,07,01,07,40,15.00
2008,07,01,07,41,15.00
2008,07,01,07,42,15.00
2008,07,01,07,43,15.10
2008,07,01,07,44,15.20
2008,07,01,07,45,15.30
2008,07,01,07,46,15.40
2008,07,01,07,47,15.50
2008,07,01,07,48,15.50
2008,07,01,07,49,15.50
2008,07,01,07,50,15.40
2008,07,01,07,51,15.40
2008,07,01,07,52,15.40
2008,07,01,07,53,15.40
2008,07,01,07,54,15.40
2008,07,01,07,55,15.30
2008,07,01,07,56,15.30
2008,07,01,07,57,15.30
2008,07,01,07,58,15.30
2008,07,01,07,59,15.20
2008,07,01,08,00,15.20
2008,07,01,08,01,15.10
2008,07,01,08,02,15.10
2008,07,01,08,03,15.10
2008,07,01,08,04,15.10
2008,07,01,08,05,15.10
2008,07,01,08,06,15.20
2008,07,01,08,07,15.30
2008,07,01,08,08,15.40
2008,07,01,08,09,15.50
2008,07,01,08,10,15.60
2008,07,01,08,11,15.60
2008,07,01,08,12,15.60
2008,07,01,08,13,15.60
2008,07,01,08,14,15.70
2008,07,01,08,15,15.80
2008,07,01,08,16,15.80
2008,07,01,08,17,15.90
2008,07,01,08,18,15.90
2008,07,01,08,19,16.00
2008,07,01,08,20,16.00
2008,07,01,08,21,16.10
2008,07,01,08,22,16.10
2008,07,01,08,23,16.20
2008,07,01,08,24,16.20
2008,07,01,08,25,16.20
2008,07,01,08,26,16.20
2008,07,01,08,27,16.30
2008,07,01,08,28,16.40
2008,07,01,08,29,16.50
2008,07,01,08,30,16.60
2008,07,01,08,31,16.70
2008,07,01,08,32,16.70
2008,07,01,08,33,16.80
2008,07,01,08,34,16.90
2008,07,01,08,35,17.00
2008,07,01,08,36,17.10
2008,07,01,08,37,17.20
2008,07,01,08,38,17.10
2008,07,01,08,39,17.10
2008,07,01,08,40,17.20
2008,07,01,08,41,17.20
2008,07,01,08,42,17.20
2008,07,01,08,43,17.20
2008,07,01,08,44,17.20
2008,07,01,08,45,17.10
2008,07,01,08,46,17.00
2008,07,01,08,47,16.90
2008,07,01,08,48,16.90
2008,07,01,08,49,16.90
2008,07,01,08,50,16.80
2008,07,01,08,51,16.80
2008,07,01,08,52,16.90
2008,07,01,08,53,16.90
2008,07,01,08,54,16.80
2008,07,01,08,55,16.80
2008,07,01,08,56,16.90
2008,07,01,08,57,16.90
2008,07,01,08,58,16.90
2008,07,01,08,59,16.90
2008,07,01,09,00,17.00
2008,07,01,09,01,17.00
2008,07,01,09,02,17.10
2008,07,01,09,03,17.10
2008,07,01,09,04,17.10
2008,07,01,09,05,17.10
2008,07,01,09,06,17.10
2008,07,01,09,07,17.10
2008,07,01,09,08,17.20
2008,07,01,09,09,17.20
2008,07,01,09,10,17.30
2008,07,01,09,11,17.30
2008,07,01,09,12,17.30
2008,07,01,09,13,17.30
2008,07,01,09,14,17.40
2008,07,01,09,15,17.50
2008,07,01,09,16,17.60
2008,07,01,09,17,17.70
2008,07,01,09,18,17.80
2008,07,01,09,19,17.70
2008,07,01,09,20,17.70
2008,07,01,09,21,17.70
2008,07,01,09,22,17.70
2008,07,01,09,23,17.80
2008,07,01,09,24,17.80
2008,07,01,09,25,17.90
2008,07,01,09,26,17.90
2008,07,01,09,27,17.80
2008,07,01,09,28,17.80
2008,07,01,09,29,17.80
2008,07,01,09,30,17.80
2008,07,01,09,31,17.90
2008,07,01,09,32,18.00
2008,07,01,09,33,18.00
2008,07,01,09,34,18.00
2008,07,01,09,35,18.00
2008,07,01,09,36,17.90
2008,07,01,09,37,17.80
2008,07,01,09,38,17.80
2008,07,01,09,39,17.80
2008,07,01,09,40,17.90
2008,07,01,09,41,17.90
2008,07,01,09,42,17.90
2008,07,01,09,43,17.90
2008,07,01,09,44,18.00
2008,07,01,09,45,18.10
2008,07,01,09,46,18.10
2008,07,01,09,47,18.10
2008,07,01,09,48,17.80
2008,07,01,09,49,17.60
2008,07,01,09,50,17.40
2008,07,01,09,51,17.20
2008,07,01,09,52,17.00
2008,07,01,09,53,17.00
2008,07,01,09,54,17.00
2008,07,01,09,55,17.10
2008,07,01,09,56,17.20
2008,07,01,09,57,17.30
2008,07,01,09,58,17.30
2008,07,01,09,59,17.30
2008,07,01,10,00,17.20
2008,07,01,10,01,17.00
2008,07,01,10,02,16.80
2008,07,01,10,03,16.80
2008,07,01,10,04,16.70
2008,07,01,10,05,16.70
2008,07,01,10,06,16.60
2008,07,01,10,07,16.60
2008,07,01,10,08,16.70
2008,07,01,10,09,16.70
2008,07,01,10,10,16.60
2008,07,01,10,11,16.60
2008,07,01,10,12,16.50
2008,07,01,10,13,16.40
2008,07,01,10,14,16.40
2008,07,01,10,15,16.40
2008,07,01,10,16,16.40
2008,07,01,10,17,16.40
2008,07,01,10,18,16.50
2008,07,01,10,19,16.60
2008,07,01,10,20,16.70
2008,07,01,10,21,16.80
2008,07,01,10,22,16.90
2008,07,01,10,23,17.00
2008,07,01,10,24,17.10
2008,07,01,10,25,17.20
2008,07,01,10,26,17.30
2008,07,01,10,27,17.30
2008,07,01,10,28,17.40
2008,07,01,10,29,17.50
2008,07,01,10,30,17.60
2008,07,01,10,31,17.60
2008,07,01,10,32,17.50
2008,07,01,10,33,17.50
2008,07,01,10,34,17.40
2008,07,01,10,35,17.40
2008,07,01,10,36,17.30
2008,07,01,10,37,17.30
2008,07,01,10,38,17.20
2008,07,01,10,39,17.10
2008,07,01,10,40,17.10
2008,07,01,10,41,17.00
2008,07,01,10,42,17.10
2008,07,01,10,43,17.10
2008,07,01,10,44,17.20
2008,07,01,10,45,17.20
2008,07,01,10,46,17.10
2008,07,01,10,47,17.10
2008,07,01,10,48,17.10
2008,07,01,10,49,17.20
2008,07,01,10,50,17.20
2008,07,01,10,51,17.30
2008,07,01,10,52,17.30
2008,07,01,10,53,17.40
2008,07,01,10,54,17.50
2008,07,01,10,55,17.60
2008,07,01,10,56,17.70
2008,07,01,10,57,17.90
2008,07,01,10,58,18.00
2008,07,01,10,59,18.00
2008,07,01,11,00,18.00
2008,07,01,11,01,17.90
2008,07,01,11,02,17.90
2008,07,01,11,03,17.80
2008,07,01,11,04,17.80
2008,07,01,11,05,17.80
2008,07,01,11,06,17.90
2008,07,01,11,07,18.00
2008,07,01,11,08,18.10
2008,07,01,11,09,18.10
2008,07,01,11,10,18.20
2008,07,01,11,11,18.20
2008,07,01,11,12,18.20
2008,07,01,11,13,18.20
2008,07,01,11,14,18.30
2008,07,01,11,15,18.30
2008,07,01,11,16,18.40
2008,07,01,11,17,18.50
2008,07,01,11,18,18.60
2008,07,01,11,19,18.60
2008,07,01,11,20,18.60
2008,07,01,11,21,18.50
2008,07,01,11,22,18.40
2008,07,01,11,23,18.40
2008,07,01,11,24,18.40
2008,07,01,11,25,18.50
2008,07,01,11,26,18.60
2008,07,01,11,27,18.50
2008,07,01,11,28,18.50
2008,07,01,11,29,18.60
2008,07,01,11,30,18.60
2008,07,01,11,31,18.70
2008,07,01,11,32,18.70
2008,07,01,11,33,18.70
2008,07,01,11,34,18.60
2008,07,01,11,35,18.70
2008,07,01,11,36,18.70
2008,07,01,11,37,18.70
2008,07,01,11,38,18.70
2008,07,01,11,39,18.80
2008,07,01,11,40,18.80
2008,07,01,11,41,18.80
2008,07,01,11,42,18.80
2008,07,01,11,43,18.80
2008,07,01,11,44,18.90
2008,07,01,11,45,19.00
2008,07,01,11,46,19.00
2008,07,01,11,47,19.10
2008,07,01,11,48,19.10
2008,07,01,11,49,19.20
2008,07,01,11,50,19.20
2008,07,01,11,51,19.20
2008,07,01,11,52,19.20
2008,07,01,11,53,19.20
2008,07,01,11,54,19.20
2008,07,01,11,55,19.30
2008,07,01,11,56,19.30
2008,07,01,11,57,19.30
2008,07,01,11,58,19.40
2008,07,01,11,59,19.40
2008,07,01,12,00,19.50
2008,07,01,12,01,19.60
2008,07,01,12,02,19.60
2008,07,01,12,03,19.60
2008,07,01,12,04,19.50
2008,07,01,12,05,19.40
2008,07,01,12,06,19.30
2008,07,01,12,07,19.30
2008,07,01,12,08,19.40
2008,07,01,12,09,19.60
2008,07,01,12,10,19.70
2008,07,01,12,11,19.80
2008,07,01,12,12,19.80
2008,07,01,12,13,19.70
2008,07,01,12,14,19.70
2008,07,01,12,15,19.80
2008,07,01,12,16,19.90
2008,07,01,12,17,20.00
2008,07,01,12,18,20.20
2008,07,01,12,19,20.20
2008,07,01,12,20,20.30
2008,07,01,12,21,20.40
2008,07,01,12,22,20.40
2008,07,01,12,23,20.50
2008,07,01,12,24,20.60
2008,07,01,12,25,20.60
2008,07,01,12,26,20.70
2008,07,01,12,27,20.80
2008,07,01,12,28,20.90
2008,07,01,12,29,20.90
2008,07,01,12,30,20.90
2008,07,01,12,31,20.80
2008,07,01,12,32,20.80
2008,07,01,12,33,20.80
2008,07,01,12,34,20.80
2008,07,01,12,35,20.70
2008,07,01,12,36,20.50
2008,07,01,12,37,20.30
2008,07,01,12,38,20.00
2008,07,01,12,39,19.80
2008,07,01,12,40,19.70
2008,07,01,12,41,19.50
2008,07,01,12,42,19.30
2008,07,01,12,43,19.10
2008,07,01,12,44,19.00
2008,07,01,12,45,18.90
2008,07,01,12,46,18.70
2008,07,01,12,47,18.50
2008,07,01,12,48,18.30
2008,07,01,12,49,18.20
2008,07,01,12,50,18.20
2008,07,01,12,51,18.20
2008,07,01,12,52,18.30
2008,07,01,12,53,18.30
2008,07,01,12,54,18.40
2008,07,01,12,55,18.50
2008,07,01,12,56,18.60
2008,07,01,12,57,18.70
2008,07,01,12,58,18.80
2008,07,01,12,59,18.80
2008,07,01,13,00,18.80
2008,07,01,13,01,18.70
2008,07,01,13,02,18.70
2008,07,01,13,03,18.60
2008,07,01,13,04,18.60
2008,07,01,13,05,18.60
2008,07,01,13,06,18.50
2008,07,01,13,07,18.50
2008,07,01,13,08,18.40
2008,07,01,13,09,18.30
2008,07,01,13,10,18.20
2008,07,01,13,11,18.10
2008,07,01,13,12,18.10
2008,07,01,13,13,18.10
2008,07,01,13,14,18.20
2008,07,01,13,15,18.30
2008,07,01,13,16,18.50
2008,07,01,13,17,18.60
2008,07,01,13,18,18.80
2008,07,01,13,19,18.90
2008,07,01,13,20,19.10
2008,07,01,13,21,19.20
2008,07,01,13,22,19.20
2008,07,01,13,23,19.30
2008,07,01,13,24,19.40
2008,07,01,13,25,19.50
2008,07,01,13,26,19.60
2008,07,01,13,27,19.70
2008,07,01,13,28,19.70
2008,07,01,13,29,19.80
2008,07,01,13,30,19.80
2008,07,01,13,31,19.90
2008,07,01,13,32,19.80
2008,07,01,13,33,19.80
2008,07,01,13,34,19.90
2008,07,01,13,35,19.80
2008,07,01,13,36,19.70
2008,07,01,13,37,19.70
2008,07,01,13,38,19.70
2008,07,01,13,39,19.60
2008,07,01,13,40,19.70
2008,07,01,13,41,19.70
2008,07,01,13,42,19.80
2008,07,01,13,43,19.80
2008,07,01,13,44,19.90
2008,07,01,13,45,20.00
2008,07,01,13,46,20.00
2008,07,01,13,47,20.10
2008,07,01,13,48,20.00
2008,07,01,13,49,19.90
2008,07,01,13,50,19.90
2008,07,01,13,51,19.80
2008,07,01,13,52,19.70
2008,07,01,13,53,19.70
2008,07,01,13,54,19.70
2008,07,01,13,55,19.60
2008,07,01,13,56,19.50
2008,07,01,13,57,19.50
2008,07,01,13,58,19.60
2008,07,01,13,59,19.60
2008,07,01,14,00,19.60
2008,07,01,14,01,19.80
2008,07,01,14,02,19.80
2008,07,01,14,03,19.90
2008,07,01,14,04,19.80
2008,07,01,14,05,19.70
2008,07,01,14,06,19.60
2008,07,01,14,07,19.50
2008,07,01,14,08,19.60
2008,07,01,14,09,19.60
2008,07,01,14,10,19.70
2008,07,01,14,11,19.80
2008,07,01,14,12,19.80
2008,07,01,14,13,19.80
2008,07,01,14,14,19.80
2008,07,01,14,15,19.80
2008,07,01,14,16,19.80
2008,07,01,14,17,19.80
2008,07,01,14,18,19.80
2008,07,01,14,19,19.80
2008,07,01,14,20,19.80
2008,07,01,14,21,19.70
2008,07,01,14,22,19.60
2008,07,01,14,23,19.50
2008,07,01,14,24,19.40
2008,07,01,14,25,19.40
2008,07,01,14,26,19.50
2008,07,01,14,27,19.60
2008,07,01,14,28,19.60
2008,07,01,14,29,19.60
2008,07,01,14,30,19.50
2008,07,01,14,31,19.40
2008,07,01,14,32,19.40
2008,07,01,14,33,19.30
2008,07,01,14,34,19.30
2008,07,01,14,35,19.40
2008,07,01,14,36,19.50
2008,07,01,14,37,19.50
2008,07,01,14,38,19.60
2008,07,01,14,39,19.60
2008,07,01,14,40,19.60
2008,07,01,14,41,19.60
2008,07,01,14,42,19.60
2008,07,01,14,43,19.60
2008,07,01,14,44,19.60
2008,07,01,14,45,19.70
2008,07,01,14,46,19.80
2008,07,01,14,47,19.90
2008,07,01,14,48,19.90
2008,07,01,14,49,20.10
2008,07,01,14,50,20.20
2008,07,01,14,51,20.20
2008,07,01,14,52,20.20
2008,07,01,14,53,20.30
2008,07,01,14,54,20.50
2008,07,01,14,55,20.60
2008,07,01,14,56,20.60
2008,07,01,14,57,20.60
2008,07,01,14,58,20.60
2008,07,01,14,59,20.40
2008,07,01,15,00,20.40
2008,07,01,15,01,20.30
2008,07,01,15,02,20.20
2008,07,01,15,03,20.10
2008,07,01,15,04,20.00
2008,07,01,15,05,19.80
2008,07,01,15,06,19.70
2008,07,01,15,07,19.60
2008,07,01,15,08,19.50
2008,07,01,15,09,19.40
2008,07,01,15,10,19.50
2008,07,01,15,11,19.60
2008,07,01,15,12,19.70
2008,07,01,15,13,19.70
2008,07,01,15,14,19.70
2008,07,01,15,15,19.70
2008,07,01,15,16,19.70
2008,07,01,15,17,19.70
2008,07,01,15,18,19.80
2008,07,01,15,19,19.80
2008,07,01,15,20,19.90
2008,07,01,15,21,19.90
2008,07,01,15,22,20.00
2008,07,01,15,23,20.00
2008,07,01,15,24,20.10
2008,07,01,15,25,20.20
2008,07,01,15,26,20.20
2008,07,01,15,27,20.10
2008,07,01,15,28,20.10
2008,07,01,15,29,20.00
2008,07,01,15,30,19.90
2008,07,01,15,31,19.90
2008,07,01,15,32,19.80
2008,07,01,15,33,19.80
2008,07,01,15,34,19.70
2008,07,01,15,35,19.60
2008,07,01,15,36,19.60
2008,07,01,15,37,19.60
2008,07,01,15,38,19.70
2008,07,01,15,39,19.80
2008,07,01,15,40,19.90
2008,07,01,15,41,20.00
2008,07,01,15,42,20.00
2008,07,01,15,43,20.00
2008,07,01,15,44,19.90
2008,07,01,15,45,19.70
2008,07,01,15,46,19.70
2008,07,01,15,47,19.60
2008,07,01,15,48,19.50
2008,07,01,15,49,19.50
2008,07,01,15,50,19.60
2008,07,01,15,51,19.60
2008,07,01,15,52,19.60
2008,07,01,15,53,19.70
2008,07,01,15,54,19.80
2008,07,01,15,55,19.90
2008,07,01,15,56,19.90
2008,07,01,15,57,20.00
2008,07,01,15,58,20.00
2008,07,01,15,59,20.00
2008,07,01,16,00,20.00
2008,07,01,16,01,20.00
2008,07,01,16,02,20.00
2008,07,01,16,03,20.00
2008,07,01,16,04,20.10
2008,07,01,16,05,20.20
2008,07,01,16,06,20.10
2008,07,01,16,07,20.00
2008,07,01,16,08,20.10
2008,07,01,16,09,20.20
2008,07,01,16,10,20.20
2008,07,01,16,11,20.20
2008,07,01,16,12,20.10
2008,07,01,16,13,20.10
2008,07,01,16,14,20.20
2008,07,01,16,15,20.30
2008,07,01,16,16,20.30
2008,07,01,16,17,20.30
2008,07,01,16,18,20.30
2008,07,01,16,19,20.30
2008,07,01,16,20,20.30
2008,07,01,16,21,20.20
2008,07,01,16,22,20.20
2008,07,01,16,23,20.10
2008,07,01,16,24,20.10
2008,07,01,16,25,20.10
2008,07,01,16,26,20.20
2008,07,01,16,27,20.20
2008,07,01,16,28,20.30
2008,07,01,16,29,20.40
2008,07,01,16,30,20.50
2008,07,01,16,31,20.60
2008,07,01,16,32,20.60
2008,07,01,16,33,20.60
2008,07,01,16,34,20.50
2008,07,01,16,35,20.50
2008,07,01,16,36,20.50
2008,07,01,16,37,20.50
2008,07,01,16,38,20.60
2008,07,01,16,39,20.70
2008,07,01,16,40,20.80
2008,07,01,16,41,20.80
2008,07,01,16,42,20.90
2008,07,01,16,43,21.00
2008,07,01,16,44,21.20
2008,07,01,16,45,21.20
2008,07,01,16,46,21.30
2008,07,01,16,47,21.30
2008,07,01,16,48,21.20
2008,07,01,16,49,21.20
2008,07,01,16,50,21.20
2008,07,01,16,51,21.20
2008,07,01,16,52,21.20
2008,07,01,16,53,21.30
2008,07,01,16,54,21.20
2008,07,01,16,55,21.10
2008,07,01,16,56,21.00
2008,07,01,16,57,20.90
2008,07,01,16,58,20.80
2008,07,01,16,59,20.60
2008,07,01,17,00,20.50
2008,07,01,17,01,20.40
2008,07,01,17,02,20.40
2008,07,01,17,03,20.40
2008,07,01,17,04,20.40
2008,07,01,17,05,20.40
2008,07,01,17,06,20.40
2008,07,01,17,07,20.50
2008,07,01,17,08,20.40
2008,07,01,17,09,20.40
2008,07,01,17,10,20.50
2008,07,01,17,11,20.60
2008,07,01,17,12,20.70
2008,07,01,17,13,20.80
2008,07,01,17,14,20.90
2008,07,01,17,15,20.90
2008,07,01,17,16,21.00
2008,07,01,17,17,21.00
2008,07,01,17,18,20.90
2008,07,01,17,19,20.90